Year,Month,Day,Hour,Minute,Value (Times are PST for windgust in km/hr)
2010,10,24,00,00,33.80
2010,10,24,00,01,14.50
2010,10,24,00,02,14.50
2010,10,24,00,03,54.70
2010,10,24,00,04,40.20
2010,10,24,00,05,43.50
2010,10,24,00,06,43.50
2010,10,24,00,07,45.10
2010,10,24,00,08,49.90
2010,10,24,00,09,37.00
2010,10,24,00,10,49.90
2010,10,24,00,11,38.60
2010,10,24,00,12,43.50
2010,10,24,00,13,40.20
2010,10,24,00,14,49.90
2010,10,24,00,15,49.90
2010,10,24,00,16,56.30
2010,10,24,00,17,32.20
2010,10,24,00,18,33.80
2010,10,24,00,19,53.10
2010,10,24,00,20,48.30
2010,10,24,00,21,48.30
2010,10,24,00,22,48.30
2010,10,24,00,23,51.50
2010,10,24,00,24,51.50
2010,10,24,00,25,45.10
2010,10,24,00,26,49.90
2010,10,24,00,27,53.10
2010,10,24,00,28,37.00
2010,10,24,00,29,27.40
2010,10,24,00,30,40.20
2010,10,24,00,31,38.60
2010,10,24,00,32,40.20
2010,10,24,00,33,27.40
2010,10,24,00,34,48.30
2010,10,24,00,35,45.10
2010,10,24,00,36,43.50
2010,10,24,00,37,53.10
2010,10,24,00,38,53.10
2010,10,24,00,39,53.10
2010,10,24,00,40,77.30
2010,10,24,00,41,51.50
2010,10,24,00,42,32.20
2010,10,24,00,43,48.30
2010,10,24,00,44,37.00
2010,10,24,00,45,41.80
2010,10,24,00,46,33.80
2010,10,24,00,47,51.50
2010,10,24,00,48,29.00
2010,10,24,00,49,25.70
2010,10,24,00,50,53.10
2010,10,24,00,51,29.00
2010,10,24,00,52,33.80
2010,10,24,00,53,35.40
2010,10,24,00,54,40.20
2010,10,24,00,55,37.00
2010,10,24,00,56,29.00
2010,10,24,00,57,32.20
2010,10,24,00,58,45.10
2010,10,24,00,59,33.80
2010,10,24,01,00,48.30
2010,10,24,01,01,48.30
2010,10,24,01,02,40.20
2010,10,24,01,03,33.80
2010,10,24,01,04,43.50
2010,10,24,01,05,41.80
2010,10,24,01,06,27.40
2010,10,24,01,07,24.20
2010,10,24,01,08,43.50
2010,10,24,01,09,48.30
2010,10,24,01,10,43.50
2010,10,24,01,11,30.60
2010,10,24,01,12,53.10
2010,10,24,01,13,51.50
2010,10,24,01,14,49.90
2010,10,24,01,15,38.60
2010,10,24,01,16,56.30
2010,10,24,01,17,37.00
2010,10,24,01,18,43.50
2010,10,24,01,19,53.10
2010,10,24,01,20,40.20
2010,10,24,01,21,48.30
2010,10,24,01,22,51.50
2010,10,24,01,23,56.30
2010,10,24,01,24,77.30
2010,10,24,01,25,24.20
2010,10,24,01,26,37.00
2010,10,24,01,27,59.50
2010,10,24,01,28,38.60
2010,10,24,01,29,16.10
2010,10,24,01,30,16.10
2010,10,24,01,31,40.20
2010,10,24,01,32,22.50
2010,10,24,01,33,14.50
2010,10,24,01,34,14.50
2010,10,24,01,35,22.50
2010,10,24,01,36,19.30
2010,10,24,01,37,35.40
2010,10,24,01,38,48.30
2010,10,24,01,39,49.90
2010,10,24,01,40,37.00
2010,10,24,01,41,43.50
2010,10,24,01,42,25.70
2010,10,24,01,43,40.20
2010,10,24,01,44,35.40
2010,10,24,01,45,43.50
2010,10,24,01,46,33.80
2010,10,24,01,47,33.80
2010,10,24,01,48,41.80
2010,10,24,01,49,45.10
2010,10,24,01,50,53.10
2010,10,24,01,51,38.60
2010,10,24,01,52,33.80
2010,10,24,01,53,33.80
2010,10,24,01,54,35.40
2010,10,24,01,55,33.80
2010,10,24,01,56,49.90
2010,10,24,01,57,22.50
2010,10,24,01,58,32.20
2010,10,24,01,59,33.80
2010,10,24,02,00,61.20
2010,10,24,02,01,48.30
2010,10,24,02,02,33.80
2010,10,24,02,03,37.00
2010,10,24,02,04,41.80
2010,10,24,02,05,38.60
2010,10,24,02,06,53.10
2010,10,24,02,07,33.80
2010,10,24,02,08,22.50
2010,10,24,02,09,29.00
2010,10,24,02,10,19.30
2010,10,24,02,11,40.20
2010,10,24,02,12,29.00
2010,10,24,02,13,46.70
2010,10,24,02,14,49.90
2010,10,24,02,15,41.80
2010,10,24,02,16,37.00
2010,10,24,02,17,41.80
2010,10,24,02,18,37.00
2010,10,24,02,19,41.80
2010,10,24,02,20,30.60
2010,10,24,02,21,38.60
2010,10,24,02,22,38.60
2010,10,24,02,23,45.10
2010,10,24,02,24,43.50
2010,10,24,02,25,37.00
2010,10,24,02,26,35.40
2010,10,24,02,27,38.60
2010,10,24,02,28,27.40
2010,10,24,02,29,38.60
2010,10,24,02,30,25.70
2010,10,24,02,31,33.80
2010,10,24,02,32,30.60
2010,10,24,02,33,32.20
2010,10,24,02,34,25.70
2010,10,24,02,35,46.70
2010,10,24,02,36,27.40
2010,10,24,02,37,33.80
2010,10,24,02,38,33.80
2010,10,24,02,39,24.20
2010,10,24,02,40,40.20
2010,10,24,02,41,35.40
2010,10,24,02,42,30.60
2010,10,24,02,43,41.80
2010,10,24,02,44,33.80
2010,10,24,02,45,19.30
2010,10,24,02,46,35.40
2010,10,24,02,47,25.70
2010,10,24,02,48,19.30
2010,10,24,02,49,30.60
2010,10,24,02,50,24.20
2010,10,24,02,51,27.40
2010,10,24,02,52,12.90
2010,10,24,02,53,22.50
2010,10,24,02,54,27.40
2010,10,24,02,55,25.70
2010,10,24,02,56,30.60
2010,10,24,02,57,19.30
2010,10,24,02,58,22.50
2010,10,24,02,59,27.40
2010,10,24,03,00,22.50
2010,10,24,03,01,22.50
2010,10,24,03,02,20.90
2010,10,24,03,03,30.60
2010,10,24,03,04,24.20
2010,10,24,03,05,19.30
2010,10,24,03,06,25.70
2010,10,24,03,07,20.90
2010,10,24,03,08,19.30
2010,10,24,03,09,22.50
2010,10,24,03,10,20.90
2010,10,24,03,11,20.90
2010,10,24,03,12,20.90
2010,10,24,03,13,9.60
2010,10,24,03,14,24.20
2010,10,24,03,15,20.90
2010,10,24,03,16,19.30
2010,10,24,03,17,29.00
2010,10,24,03,18,25.70
2010,10,24,03,19,27.40
2010,10,24,03,20,27.40
2010,10,24,03,21,38.60
2010,10,24,03,22,43.50
2010,10,24,03,23,30.60
2010,10,24,03,24,24.20
2010,10,24,03,25,25.70
2010,10,24,03,26,29.00
2010,10,24,03,27,22.50
2010,10,24,03,28,29.00
2010,10,24,03,29,25.70
2010,10,24,03,30,22.50
2010,10,24,03,31,40.20
2010,10,24,03,32,20.90
2010,10,24,03,33,25.70
2010,10,24,03,34,30.60
2010,10,24,03,35,17.70
2010,10,24,03,36,20.90
2010,10,24,03,37,17.70
2010,10,24,03,38,14.50
2010,10,24,03,39,33.80
2010,10,24,03,40,40.20
2010,10,24,03,41,35.40
2010,10,24,03,42,27.40
2010,10,24,03,43,33.80
2010,10,24,03,44,22.50
2010,10,24,03,45,6.40
2010,10,24,03,46,14.50
2010,10,24,03,47,27.40
2010,10,24,03,48,14.50
2010,10,24,03,49,9.60
2010,10,24,03,50,33.80
2010,10,24,03,51,20.90
2010,10,24,03,52,27.40
2010,10,24,03,53,19.30
2010,10,24,03,54,16.10
2010,10,24,03,55,29.00
2010,10,24,03,56,30.60
2010,10,24,03,57,27.40
2010,10,24,03,58,14.50
2010,10,24,03,59,24.20
2010,10,24,04,00,19.30
2010,10,24,04,01,29.00
2010,10,24,04,02,35.40
2010,10,24,04,03,40.20
2010,10,24,04,04,20.90
2010,10,24,04,05,19.30
2010,10,24,04,06,25.70
2010,10,24,04,07,25.70
2010,10,24,04,08,32.20
2010,10,24,04,09,20.90
2010,10,24,04,10,33.80
2010,10,24,04,11,32.20
2010,10,24,04,12,25.70
2010,10,24,04,13,35.40
2010,10,24,04,14,22.50
2010,10,24,04,15,19.30
2010,10,24,04,16,22.50
2010,10,24,04,17,17.70
2010,10,24,04,18,24.20
2010,10,24,04,19,24.20
2010,10,24,04,20,33.80
2010,10,24,04,21,24.20
2010,10,24,04,22,25.70
2010,10,24,04,23,19.30
2010,10,24,04,24,20.90
2010,10,24,04,25,16.10
2010,10,24,04,26,19.30
2010,10,24,04,27,37.00
2010,10,24,04,28,30.60
2010,10,24,04,29,38.60
2010,10,24,04,30,22.50
2010,10,24,04,31,29.00
2010,10,24,04,32,24.20
2010,10,24,04,33,22.50
2010,10,24,04,34,32.20
2010,10,24,04,35,30.60
2010,10,24,04,36,24.20
2010,10,24,04,37,25.70
2010,10,24,04,38,17.70
2010,10,24,04,39,20.90
2010,10,24,04,40,25.70
2010,10,24,04,41,32.20
2010,10,24,04,42,27.40
2010,10,24,04,43,19.30
2010,10,24,04,44,17.70
2010,10,24,04,45,19.30
2010,10,24,04,46,17.70
2010,10,24,04,47,20.90
2010,10,24,04,48,22.50
2010,10,24,04,49,24.20
2010,10,24,04,50,17.70
2010,10,24,04,51,19.30
2010,10,24,04,52,17.70
2010,10,24,04,53,20.90
2010,10,24,04,54,14.50
2010,10,24,04,55,22.50
2010,10,24,04,56,20.90
2010,10,24,04,57,24.20
2010,10,24,04,58,29.00
2010,10,24,04,59,40.20
2010,10,24,05,00,20.90
2010,10,24,05,01,33.80
2010,10,24,05,02,25.70
2010,10,24,05,03,27.40
2010,10,24,05,04,17.70
2010,10,24,05,05,19.30
2010,10,24,05,06,14.50
2010,10,24,05,07,22.50
2010,10,24,05,08,17.70
2010,10,24,05,09,16.10
2010,10,24,05,10,20.90
2010,10,24,05,11,16.10
2010,10,24,05,12,17.70
2010,10,24,05,13,17.70
2010,10,24,05,14,20.90
2010,10,24,05,15,17.70
2010,10,24,05,16,11.30
2010,10,24,05,17,16.10
2010,10,24,05,18,19.30
2010,10,24,05,19,14.50
2010,10,24,05,20,11.30
2010,10,24,05,21,11.30
2010,10,24,05,22,17.70
2010,10,24,05,23,8.10
2010,10,24,05,24,9.60
2010,10,24,05,25,8.10
2010,10,24,05,26,9.60
2010,10,24,05,27,12.90
2010,10,24,05,28,9.60
2010,10,24,05,29,11.30
2010,10,24,05,30,19.30
2010,10,24,05,31,9.60
2010,10,24,05,32,6.40
2010,10,24,05,33,6.40
2010,10,24,05,34,8.10
2010,10,24,05,35,4.80
2010,10,24,05,36,4.80
2010,10,24,05,37,4.80
2010,10,24,05,38,4.80
2010,10,24,05,39,3.20
2010,10,24,05,40,4.80
2010,10,24,05,41,4.80
2010,10,24,05,42,1.60
2010,10,24,05,43,3.20
2010,10,24,05,44,3.20
2010,10,24,05,45,3.20
2010,10,24,05,46,4.80
2010,10,24,05,47,6.40
2010,10,24,05,48,6.40
2010,10,24,05,49,6.40
2010,10,24,05,50,4.80
2010,10,24,05,51,4.80
2010,10,24,05,52,3.20
2010,10,24,05,53,1.60
2010,10,24,05,54,3.20
2010,10,24,05,55,3.20
2010,10,24,05,56,3.20
2010,10,24,05,57,1.60
2010,10,24,06,04,1.60
2010,10,24,06,05,1.60
2010,10,24,06,06,3.20
2010,10,24,06,07,3.20
2010,10,24,06,08,1.60
2010,10,24,06,09,1.60
2010,10,24,06,10,3.20
2010,10,24,06,11,3.20
2010,10,24,06,12,1.60
2010,10,24,06,13,3.20
2010,10,24,06,14,1.60
2010,10,24,06,15,1.60
2010,10,24,06,16,3.20
2010,10,24,06,17,1.60
2010,10,24,06,18,3.20
2010,10,24,06,19,3.20
2010,10,24,06,20,1.60
2010,10,24,06,21,1.60
2010,10,24,06,22,1.60
2010,10,24,06,23,3.20
2010,10,24,06,26,1.60
2010,10,24,06,27,3.20
2010,10,24,06,28,3.20
2010,10,24,06,29,4.80
2010,10,24,06,30,4.80
2010,10,24,06,31,6.40
2010,10,24,06,32,3.20
2010,10,24,06,33,1.60
2010,10,24,06,34,1.60
2010,10,24,06,35,1.60
2010,10,24,06,36,4.80
2010,10,24,06,37,4.80
2010,10,24,06,38,4.80
2010,10,24,06,39,3.20
2010,10,24,06,40,3.20
2010,10,24,06,41,6.40
2010,10,24,06,42,8.10
2010,10,24,06,43,9.60
2010,10,24,06,44,8.10
2010,10,24,06,45,9.60
2010,10,24,06,46,9.60
2010,10,24,06,47,8.10
2010,10,24,06,48,11.30
2010,10,24,06,49,9.60
2010,10,24,06,50,11.30
2010,10,24,06,51,11.30
2010,10,24,06,52,17.70
2010,10,24,06,53,11.30
2010,10,24,06,54,6.40
2010,10,24,06,55,4.80
2010,10,24,06,56,6.40
2010,10,24,06,57,4.80
2010,10,24,06,58,3.20
2010,10,24,06,59,4.80
2010,10,24,07,00,1.60
2010,10,24,07,01,1.60
2010,10,24,07,02,1.60
2010,10,24,07,03,1.60
2010,10,24,07,04,1.60
2010,10,24,07,07,1.60
2010,10,24,07,18,3.20
2010,10,24,07,19,4.80
2010,10,24,07,20,4.80
2010,10,24,07,21,6.40
2010,10,24,07,22,4.80
2010,10,24,07,23,4.80
2010,10,24,07,24,4.80
2010,10,24,07,25,4.80
2010,10,24,07,26,4.80
2010,10,24,07,27,6.40
2010,10,24,07,28,3.20
2010,10,24,07,29,3.20
2010,10,24,07,31,1.60
2010,10,24,07,32,1.60
2010,10,24,07,36,3.20
2010,10,24,07,37,3.20
2010,10,24,07,38,3.20
2010,10,24,07,39,1.60
2010,10,24,07,45,3.20
2010,10,24,07,46,4.80
2010,10,24,07,47,4.80
2010,10,24,07,48,4.80
2010,10,24,07,49,8.10
2010,10,24,07,50,8.10
2010,10,24,07,51,6.40
2010,10,24,07,52,4.80
2010,10,24,07,53,4.80
2010,10,24,07,54,3.20
2010,10,24,07,55,3.20
2010,10,24,07,56,4.80
2010,10,24,07,57,4.80
2010,10,24,07,58,4.80
2010,10,24,07,59,1.60
2010,10,24,08,01,1.60
2010,10,24,08,02,1.60
2010,10,24,08,03,4.80
2010,10,24,08,04,1.60
2010,10,24,08,05,1.60
2010,10,24,08,06,3.20
2010,10,24,08,07,4.80
2010,10,24,08,08,6.40
2010,10,24,08,09,3.20
2010,10,24,08,10,4.80
2010,10,24,08,11,6.40
2010,10,24,08,12,4.80
2010,10,24,08,13,1.60
2010,10,24,08,14,1.60
2010,10,24,08,15,1.60
2010,10,24,08,17,4.80
2010,10,24,08,18,4.80
2010,10,24,08,19,4.80
2010,10,24,08,20,4.80
2010,10,24,08,21,4.80
2010,10,24,08,22,6.40
2010,10,24,08,23,6.40
2010,10,24,08,24,3.20
2010,10,24,08,25,3.20
2010,10,24,08,26,3.20
2010,10,24,08,27,8.10
2010,10,24,08,28,6.40
2010,10,24,08,29,4.80
2010,10,24,08,30,6.40
2010,10,24,08,31,6.40
2010,10,24,08,32,8.10
2010,10,24,08,33,8.10
2010,10,24,08,34,4.80
2010,10,24,08,35,1.60
2010,10,24,08,36,4.80
2010,10,24,08,37,4.80
2010,10,24,08,38,4.80
2010,10,24,08,39,1.60
2010,10,24,08,40,4.80
2010,10,24,08,41,8.10
2010,10,24,08,42,9.60
2010,10,24,08,43,4.80
2010,10,24,08,44,6.40
2010,10,24,08,45,6.40
2010,10,24,08,46,11.30
2010,10,24,08,47,9.60
2010,10,24,08,48,6.40
2010,10,24,08,49,3.20
2010,10,24,08,50,4.80
2010,10,24,08,51,3.20
2010,10,24,08,52,1.60
2010,10,24,08,55,4.80
2010,10,24,08,56,4.80
2010,10,24,08,57,4.80
2010,10,24,08,58,6.40
2010,10,24,08,59,6.40
2010,10,24,09,00,1.60
2010,10,24,09,01,3.20
2010,10,24,09,02,1.60
2010,10,24,09,03,6.40
2010,10,24,09,05,1.60
2010,10,24,09,06,3.20
2010,10,24,09,07,1.60
2010,10,24,09,08,4.80
2010,10,24,09,09,8.10
2010,10,24,09,10,6.40
2010,10,24,09,11,1.60
2010,10,24,09,12,1.60
2010,10,24,09,13,3.20
2010,10,24,09,14,1.60
2010,10,24,09,15,3.20
2010,10,24,09,16,3.20
2010,10,24,09,17,3.20
2010,10,24,09,18,3.20
2010,10,24,09,19,1.60
2010,10,24,09,20,3.20
2010,10,24,09,21,1.60
2010,10,24,09,22,1.60
2010,10,24,09,23,3.20
2010,10,24,09,26,1.60
2010,10,24,09,28,3.20
2010,10,24,09,29,4.80
2010,10,24,09,30,4.80
2010,10,24,09,31,4.80
2010,10,24,09,32,6.40
2010,10,24,09,33,8.10
2010,10,24,09,34,4.80
2010,10,24,09,35,3.20
2010,10,24,09,36,3.20
2010,10,24,09,37,3.20
2010,10,24,09,38,3.20
2010,10,24,09,39,3.20
2010,10,24,09,40,4.80
2010,10,24,09,41,3.20
2010,10,24,09,42,1.60
2010,10,24,09,53,1.60
2010,10,24,09,56,1.60
2010,10,24,09,58,1.60
2010,10,24,10,01,1.60
2010,10,24,10,02,1.60
2010,10,24,10,05,1.60
2010,10,24,10,06,3.20
2010,10,24,10,08,1.60
2010,10,24,10,09,3.20
2010,10,24,10,10,1.60
2010,10,24,10,11,1.60
2010,10,24,10,12,3.20
2010,10,24,10,21,1.60
2010,10,24,10,22,1.60
2010,10,24,10,25,1.60
2010,10,24,10,28,1.60
2010,10,24,10,29,1.60
2010,10,24,10,30,1.60
2010,10,24,10,31,1.60
2010,10,24,10,32,1.60
2010,10,24,10,33,3.20
2010,10,24,10,34,3.20
2010,10,24,10,35,3.20
2010,10,24,10,36,1.60
2010,10,24,10,38,1.60
2010,10,24,10,39,1.60
2010,10,24,10,40,1.60
2010,10,24,10,42,1.60
2010,10,24,10,43,3.20
2010,10,24,10,44,1.60
2010,10,24,10,46,1.60
2010,10,24,10,47,3.20
2010,10,24,10,48,1.60
2010,10,24,10,49,3.20
2010,10,24,10,50,4.80
2010,10,24,10,51,4.80
2010,10,24,10,52,3.20
2010,10,24,10,53,4.80
2010,10,24,10,54,6.40
2010,10,24,10,55,4.80
2010,10,24,10,56,3.20
2010,10,24,10,57,4.80
2010,10,24,10,58,4.80
2010,10,24,10,59,4.80
2010,10,24,11,00,3.20
2010,10,24,11,01,3.20
2010,10,24,11,02,3.20
2010,10,24,11,03,6.40
2010,10,24,11,04,6.40
2010,10,24,11,05,4.80
2010,10,24,11,06,4.80
2010,10,24,11,07,4.80
2010,10,24,11,08,6.40
2010,10,24,11,09,8.10
2010,10,24,11,10,4.80
2010,10,24,11,11,6.40
2010,10,24,11,12,6.40
2010,10,24,11,13,4.80
2010,10,24,11,14,4.80
2010,10,24,11,15,4.80
2010,10,24,11,16,9.60
2010,10,24,11,17,6.40
2010,10,24,11,18,4.80
2010,10,24,11,19,4.80
2010,10,24,11,20,1.60
2010,10,24,11,21,1.60
2010,10,24,11,22,6.40
2010,10,24,11,23,6.40
2010,10,24,11,24,4.80
2010,10,24,11,25,8.10
2010,10,24,11,26,6.40
2010,10,24,11,27,8.10
2010,10,24,11,28,8.10
2010,10,24,11,29,8.10
2010,10,24,11,30,9.60
2010,10,24,11,31,9.60
2010,10,24,11,32,17.70
2010,10,24,11,33,14.50
2010,10,24,11,34,17.70
2010,10,24,11,35,14.50
2010,10,24,11,36,16.10
2010,10,24,11,37,20.90
2010,10,24,11,38,19.30
2010,10,24,11,39,17.70
2010,10,24,11,40,17.70
2010,10,24,11,41,17.70
2010,10,24,11,42,12.90
2010,10,24,11,43,14.50
2010,10,24,11,44,16.10
2010,10,24,11,45,14.50
2010,10,24,11,46,16.10
2010,10,24,11,47,11.30
2010,10,24,11,48,16.10
2010,10,24,11,49,14.50
2010,10,24,11,50,11.30
2010,10,24,11,51,11.30
2010,10,24,11,52,11.30
2010,10,24,11,53,9.60
2010,10,24,11,54,11.30
2010,10,24,11,55,16.10
2010,10,24,11,56,14.50
2010,10,24,11,57,19.30
2010,10,24,11,58,14.50
2010,10,24,11,59,12.90
2010,10,24,12,00,14.50
2010,10,24,12,01,12.90
2010,10,24,12,02,11.30
2010,10,24,12,03,14.50
2010,10,24,12,04,9.60
2010,10,24,12,05,17.70
2010,10,24,12,06,22.50
2010,10,24,12,07,17.70
2010,10,24,12,08,24.20
2010,10,24,12,09,11.30
2010,10,24,12,10,17.70
2010,10,24,12,11,14.50
2010,10,24,12,12,16.10
2010,10,24,12,13,16.10
2010,10,24,12,14,20.90
2010,10,24,12,15,9.60
2010,10,24,12,16,12.90
2010,10,24,12,17,11.30
2010,10,24,12,18,8.10
2010,10,24,12,19,8.10
2010,10,24,12,20,9.60
2010,10,24,12,21,19.30
2010,10,24,12,22,16.10
2010,10,24,12,23,19.30
2010,10,24,12,24,14.50
2010,10,24,12,25,16.10
2010,10,24,12,26,9.60
2010,10,24,12,27,19.30
2010,10,24,12,28,17.70
2010,10,24,12,29,16.10
2010,10,24,12,30,11.30
2010,10,24,12,31,11.30
2010,10,24,12,32,9.60
2010,10,24,12,33,8.10
2010,10,24,12,34,12.90
2010,10,24,12,35,9.60
2010,10,24,12,36,17.70
2010,10,24,12,37,14.50
2010,10,24,12,38,11.30
2010,10,24,12,39,16.10
2010,10,24,12,40,19.30
2010,10,24,12,41,17.70
2010,10,24,12,42,17.70
2010,10,24,12,43,19.30
2010,10,24,12,44,20.90
2010,10,24,12,45,16.10
2010,10,24,12,46,25.70
2010,10,24,12,47,17.70
2010,10,24,12,48,17.70
2010,10,24,12,49,19.30
2010,10,24,12,50,19.30
2010,10,24,12,51,16.10
2010,10,24,12,52,17.70
2010,10,24,12,53,14.50
2010,10,24,12,54,19.30
2010,10,24,12,55,17.70
2010,10,24,12,56,11.30
2010,10,24,12,57,17.70
2010,10,24,12,58,16.10
2010,10,24,12,59,9.60
2010,10,24,13,00,9.60
2010,10,24,13,01,20.90
2010,10,24,13,02,20.90
2010,10,24,13,03,16.10
2010,10,24,13,04,17.70
2010,10,24,13,05,22.50
2010,10,24,13,06,17.70
2010,10,24,13,07,12.90
2010,10,24,13,08,17.70
2010,10,24,13,09,9.60
2010,10,24,13,10,14.50
2010,10,24,13,11,19.30
2010,10,24,13,12,17.70
2010,10,24,13,13,11.30
2010,10,24,13,14,11.30
2010,10,24,13,15,14.50
2010,10,24,13,16,14.50
2010,10,24,13,17,24.20
2010,10,24,13,18,14.50
2010,10,24,13,19,17.70
2010,10,24,13,20,17.70
2010,10,24,13,21,11.30
2010,10,24,13,22,17.70
2010,10,24,13,23,16.10
2010,10,24,13,24,8.10
2010,10,24,13,25,16.10
2010,10,24,13,26,16.10
2010,10,24,13,27,19.30
2010,10,24,13,28,17.70
2010,10,24,13,29,17.70
2010,10,24,13,30,14.50
2010,10,24,13,31,16.10
2010,10,24,13,32,12.90
2010,10,24,13,33,14.50
2010,10,24,13,34,16.10
2010,10,24,13,35,14.50
2010,10,24,13,36,14.50
2010,10,24,13,37,11.30
2010,10,24,13,38,8.10
2010,10,24,13,39,8.10
2010,10,24,13,40,6.40
2010,10,24,13,41,8.10
2010,10,24,13,42,8.10
2010,10,24,13,43,9.60
2010,10,24,13,44,9.60
2010,10,24,13,45,6.40
2010,10,24,13,46,6.40
2010,10,24,13,47,6.40
2010,10,24,13,48,14.50
2010,10,24,13,49,12.90
2010,10,24,13,50,8.10
2010,10,24,13,51,8.10
2010,10,24,13,52,8.10
2010,10,24,13,53,11.30
2010,10,24,13,54,11.30
2010,10,24,13,55,11.30
2010,10,24,13,56,11.30
2010,10,24,13,57,9.60
2010,10,24,13,58,4.80
2010,10,24,13,59,4.80
2010,10,24,14,00,4.80
2010,10,24,14,01,4.80
2010,10,24,14,02,3.20
2010,10,24,14,03,3.20
2010,10,24,14,04,4.80
2010,10,24,14,05,4.80
2010,10,24,14,06,16.10
2010,10,24,14,07,14.50
2010,10,24,14,08,16.10
2010,10,24,14,09,11.30
2010,10,24,14,10,9.60
2010,10,24,14,11,9.60
2010,10,24,14,12,17.70
2010,10,24,14,13,9.60
2010,10,24,14,14,4.80
2010,10,24,14,15,6.40
2010,10,24,14,16,8.10
2010,10,24,14,17,9.60
2010,10,24,14,18,8.10
2010,10,24,14,19,11.30
2010,10,24,14,20,11.30
2010,10,24,14,21,6.40
2010,10,24,14,22,11.30
2010,10,24,14,23,9.60
2010,10,24,14,24,12.90
2010,10,24,14,25,6.40
2010,10,24,14,26,6.40
2010,10,24,14,27,4.80
2010,10,24,14,28,6.40
2010,10,24,14,29,8.10
2010,10,24,14,30,6.40
2010,10,24,14,31,4.80
2010,10,24,14,32,4.80
2010,10,24,14,33,6.40
2010,10,24,14,34,8.10
2010,10,24,14,35,8.10
2010,10,24,14,36,9.60
2010,10,24,14,37,11.30
2010,10,24,14,38,12.90
2010,10,24,14,39,6.40
2010,10,24,14,40,9.60
2010,10,24,14,41,9.60
2010,10,24,14,42,14.50
2010,10,24,14,43,16.10
2010,10,24,14,44,14.50
2010,10,24,14,45,9.60
2010,10,24,14,46,8.10
2010,10,24,14,47,17.70
2010,10,24,14,48,8.10
2010,10,24,14,49,8.10
2010,10,24,14,50,4.80
2010,10,24,14,51,4.80
2010,10,24,14,52,9.60
2010,10,24,14,53,9.60
2010,10,24,14,54,4.80
2010,10,24,14,55,8.10
2010,10,24,14,56,9.60
2010,10,24,14,57,16.10
2010,10,24,14,58,11.30
2010,10,24,14,59,9.60
2010,10,24,15,00,9.60
2010,10,24,15,01,11.30
2010,10,24,15,02,14.50
2010,10,24,15,03,6.40
2010,10,24,15,04,9.60
2010,10,24,15,05,14.50
2010,10,24,15,06,11.30
2010,10,24,15,07,9.60
2010,10,24,15,08,11.30
2010,10,24,15,09,9.60
2010,10,24,15,10,8.10
2010,10,24,15,11,9.60
2010,10,24,15,12,8.10
2010,10,24,15,13,8.10
2010,10,24,15,14,11.30
2010,10,24,15,15,6.40
2010,10,24,15,16,11.30
2010,10,24,15,17,9.60
2010,10,24,15,18,8.10
2010,10,24,15,19,6.40
2010,10,24,15,20,9.60
2010,10,24,15,21,4.80
2010,10,24,15,22,9.60
2010,10,24,15,23,8.10
2010,10,24,15,24,9.60
2010,10,24,15,25,16.10
2010,10,24,15,26,6.40
2010,10,24,15,27,9.60
2010,10,24,15,28,6.40
2010,10,24,15,29,4.80
2010,10,24,15,30,8.10
2010,10,24,15,31,8.10
2010,10,24,15,32,6.40
2010,10,24,15,33,6.40
2010,10,24,15,34,4.80
2010,10,24,15,35,9.60
2010,10,24,15,36,3.20
2010,10,24,15,37,3.20
2010,10,24,15,38,6.40
2010,10,24,15,39,3.20
2010,10,24,15,40,6.40
2010,10,24,15,41,6.40
2010,10,24,15,42,1.60
2010,10,24,15,43,4.80
2010,10,24,15,44,1.60
2010,10,24,15,47,11.30
2010,10,24,15,48,6.40
2010,10,24,15,49,9.60
2010,10,24,15,50,14.50
2010,10,24,15,51,6.40
2010,10,24,15,52,4.80
2010,10,24,15,53,4.80
2010,10,24,15,54,6.40
2010,10,24,15,55,12.90
2010,10,24,15,56,6.40
2010,10,24,15,57,16.10
2010,10,24,15,58,16.10
2010,10,24,15,59,11.30
2010,10,24,16,00,11.30
2010,10,24,16,01,14.50
2010,10,24,16,02,16.10
2010,10,24,16,03,14.50
2010,10,24,16,04,8.10
2010,10,24,16,05,9.60
2010,10,24,16,06,12.90
2010,10,24,16,07,11.30
2010,10,24,16,08,11.30
2010,10,24,16,09,11.30
2010,10,24,16,10,9.60
2010,10,24,16,11,9.60
2010,10,24,16,12,6.40
2010,10,24,16,13,8.10
2010,10,24,16,14,17.70
2010,10,24,16,15,9.60
2010,10,24,16,16,17.70
2010,10,24,16,17,16.10
2010,10,24,16,18,12.90
2010,10,24,16,19,12.90
2010,10,24,16,20,8.10
2010,10,24,16,21,6.40
2010,10,24,16,22,20.90
2010,10,24,16,23,9.60
2010,10,24,16,24,11.30
2010,10,24,16,25,20.90
2010,10,24,16,26,16.10
2010,10,24,16,27,14.50
2010,10,24,16,28,12.90
2010,10,24,16,29,11.30
2010,10,24,16,30,8.10
2010,10,24,16,31,8.10
2010,10,24,16,32,8.10
2010,10,24,16,33,8.10
2010,10,24,16,34,4.80
2010,10,24,16,35,8.10
2010,10,24,16,36,9.60
2010,10,24,16,37,8.10
2010,10,24,16,38,4.80
2010,10,24,16,39,4.80
2010,10,24,16,40,4.80
2010,10,24,16,41,4.80
2010,10,24,16,42,4.80
2010,10,24,16,43,4.80
2010,10,24,16,44,6.40
2010,10,24,16,45,6.40
2010,10,24,16,46,1.60
2010,10,24,16,47,4.80
2010,10,24,16,48,4.80
2010,10,24,16,49,3.20
2010,10,24,16,50,1.60
2010,10,24,16,51,3.20
2010,10,24,16,52,3.20
2010,10,24,16,53,1.60
2010,10,24,16,54,1.60
2010,10,24,16,56,1.60
2010,10,24,17,00,4.80
2010,10,24,17,01,4.80
2010,10,24,17,02,8.10
2010,10,24,17,03,3.20
2010,10,24,17,04,8.10
2010,10,24,17,05,4.80
2010,10,24,17,06,3.20
2010,10,24,17,07,3.20
2010,10,24,17,08,3.20
2010,10,24,17,09,1.60
2010,10,24,17,11,1.60
2010,10,24,17,12,1.60
2010,10,24,17,13,3.20
2010,10,24,17,14,1.60
2010,10,24,17,16,1.60
2010,10,24,17,18,1.60
2010,10,24,17,19,1.60
2010,10,24,17,20,6.40
2010,10,24,17,21,6.40
2010,10,24,17,22,6.40
2010,10,24,17,23,1.60
2010,10,24,17,25,3.20
2010,10,24,17,26,1.60
2010,10,24,17,27,1.60
2010,10,24,17,31,4.80
2010,10,24,17,32,3.20
2010,10,24,17,33,3.20
2010,10,24,17,34,1.60
2010,10,24,17,35,1.60
2010,10,24,17,37,1.60
2010,10,24,17,39,3.20
2010,10,24,17,40,1.60
2010,10,24,17,41,1.60
2010,10,24,17,42,4.80
2010,10,24,17,44,4.80
2010,10,24,17,45,3.20
2010,10,24,17,46,3.20
2010,10,24,17,47,1.60
2010,10,24,17,48,3.20
2010,10,24,17,49,1.60
2010,10,24,17,50,3.20
2010,10,24,17,51,1.60
2010,10,24,17,52,4.80
2010,10,24,17,53,3.20
2010,10,24,17,54,1.60
2010,10,24,17,55,1.60
2010,10,24,17,57,1.60
2010,10,24,18,00,1.60
2010,10,24,18,08,3.20
2010,10,24,18,09,1.60
2010,10,24,18,12,1.60
2010,10,24,18,18,3.20
2010,10,24,18,19,3.20
2010,10,24,18,20,3.20
2010,10,24,18,24,1.60
2010,10,24,18,25,1.60
2010,10,24,18,28,1.60
2010,10,24,18,29,1.60
2010,10,24,18,30,3.20
2010,10,24,18,31,4.80
2010,10,24,18,32,3.20
2010,10,24,18,33,6.40
2010,10,24,18,34,8.10
2010,10,24,18,35,3.20
2010,10,24,18,36,9.60
2010,10,24,18,37,3.20
2010,10,24,18,38,8.10
2010,10,24,18,39,3.20
2010,10,24,18,40,3.20
2010,10,24,18,41,3.20
2010,10,24,18,42,3.20
2010,10,24,18,43,3.20
2010,10,24,18,44,3.20
2010,10,24,18,45,3.20
2010,10,24,18,48,1.60
2010,10,24,18,49,4.80
2010,10,24,18,50,3.20
2010,10,24,18,53,4.80
2010,10,24,18,54,1.60
2010,10,24,18,58,1.60
2010,10,24,18,59,1.60
2010,10,24,19,02,1.60
2010,10,24,19,03,3.20
2010,10,24,19,04,3.20
2010,10,24,19,05,3.20
2010,10,24,19,06,3.20
2010,10,24,19,10,1.60
2010,10,24,19,11,1.60
2010,10,24,19,12,1.60
2010,10,24,19,14,1.60
2010,10,24,19,15,3.20
2010,10,24,19,16,3.20
2010,10,24,19,17,4.80
2010,10,24,19,18,4.80
2010,10,24,19,19,4.80
2010,10,24,19,20,3.20
2010,10,24,19,21,1.60
2010,10,24,19,22,1.60
2010,10,24,19,27,1.60
2010,10,24,19,28,1.60
2010,10,24,19,29,1.60
2010,10,24,19,36,1.60
2010,10,24,19,37,1.60
2010,10,24,19,38,1.60
2010,10,24,19,39,1.60
2010,10,24,19,40,3.20
2010,10,24,19,41,3.20
2010,10,24,19,42,4.80
2010,10,24,19,43,4.80
2010,10,24,19,44,4.80
2010,10,24,19,45,6.40
2010,10,24,19,46,4.80
2010,10,24,19,47,4.80
2010,10,24,19,48,4.80
2010,10,24,19,49,4.80
2010,10,24,19,50,4.80
2010,10,24,19,51,3.20
2010,10,24,19,52,3.20
2010,10,24,19,53,4.80
2010,10,24,19,54,4.80
2010,10,24,19,55,3.20